Location: Del Oro Observatory
(38.3044°N, 104.8119°W)
Time: 14:39:41
(UTC-06:00)

Daily predictions for brighter satellites

Satellite Brightness Start Highest point End
(mag) Time Altitude Azimuth Time Altitude Azimuth Time Altitude Azimuth
COSMOS 2441 4.4 19:03:33 10° SSE 19:08:24 81° ENE 19:13:16 10° N
Meteor 1-24 Rocket 3.8 19:04:35 10° N 19:10:08 57° ENE 19:15:27 10° SSE
Cosmos 2056 Rocket 3.6 19:05:54 10° NNW 19:11:18 65° ENE 19:16:40 10° SSE
Meteor 2-5 Rocket 4.0 19:08:20 10° NNW 19:13:57 74° W 19:19:28 10° S
GPS 2-04 Rocket1 4.3 19:14:35 10° SSW 19:16:54 17° SSE 19:19:15 10° ESE
SJ-6B 3.1 19:13:35 10° SSE 19:17:22 46° ENE 19:21:17 10° N
Cosmos 2346 Rocket 4.4 19:12:07 10° N 19:18:12 84° E 19:24:15 10° S
Cosmos 1371 Rocket 4.3 19:15:46 10° NNW 19:21:04 77° WSW 19:26:23 10° S
COSMO-SKYMED 1 3.1 19:18:08 10° N 19:22:27 66° WNW 19:26:44 10° SSW
IDEFIX/ARIANE 42P 4.3 19:22:23 10° SSW 19:27:11 37° W 19:32:04 10° NNW
HJ-1C 4.3 19:24:27 10° SE 19:27:22 28° ENE 19:30:18 10° NNE
Cosmos 1758 4.1 19:24:35 10° SSE 19:28:13 32° E 19:31:52 10° NNE
Cosmos 2333 Rocket 4.2 19:23:44 10° WSW 19:28:50 32° WNW 19:33:58 10° N
Cosmos 192 4.3 19:24:26 10° S 19:29:20 68° ESE 19:34:17 10° NNE
NOAA 12 4.1 19:26:39 10° SSE 19:31:51 67° ENE 19:37:05 10° N
ISS -1.5 19:30:20 10° SSE 19:32:20 15° SE 19:33:16 14° ESE
Aureole 2 Rocket 3.4 19:28:33 10° SSW 19:32:55 69° WNW 19:37:13 10° NNE
Timation 1 Rocket 4.3 19:29:31 10° NNW 19:35:28 67° ENE 19:41:24 10° SSE
SAR-Lupe-1 4.0 19:32:02 10° SSE 19:35:35 88° ENE 19:39:09 10° NNW
Cosmos 1484 Rocket 3.8 19:32:08 10° S 19:35:50 49° W 19:39:37 10° NNW
Cosmos 1674 4.5 19:34:10 10° NE 19:36:16 14° ENE 19:36:37 14° E
OAO 3 Rocket 3.4 19:32:10 10° WSW 19:36:49 58° S 19:40:37 16° E
Cosmos 1624 Rocket 4.5 19:33:13 10° NNW 19:38:24 65° WSW 19:43:31 10° S
In-Cosmos 22 4.4 19:33:18 10° N 19:38:57 53° ENE 19:44:32 10° SSE
ASTRO E2 4.0 19:36:45 10° WSW 19:40:19 30° S 19:43:08 14° SE
Cosmos 1766 Rocket 3.6 19:37:54 10° N 19:42:12 52° E 19:46:25 10° SSE
USA 215 3.2 19:37:47 10° NE 19:44:19 74° SE 19:50:50 10° SW
ALOS 3.0 19:42:33 10° SE 19:46:36 31° ENE 19:50:43 10° N
Meteor 1-29 3.3 19:43:55 10° NNE 19:47:17 43° E 19:50:37 10° S
Helios 1B rocket 2.4 19:45:12 10° NNE 19:49:17 61° ESE 19:53:20 10° S
Cosmos 1076 Rocket 3.5 19:48:46 10° N 19:53:07 88° E 19:57:28 10° S
CZ-4C R/B 4.4 19:48:48 10° W 19:53:13 24° NW 19:58:04 10° NNE
Cosmos 2034 Rocket 3.9 19:48:31 10° S 19:54:43 73° E 20:01:03 10° N
ATLAS 5 CENTAUR R/B 1.9 19:50:38 10° SW 19:55:22 79° WNW 20:00:31 10° NNE
Cosmos 1766 4.5 19:52:28 10° SSW 19:56:16 45° W 20:00:07 10° N
Cosmos 1464 Rocket 4.1 19:50:17 10° S 19:56:33 80° W 20:02:46 10° N
Meteor 1-21 Rocket 4.2 19:51:26 10° N 19:56:53 55° ENE 20:02:17 10° SSE
CZ-4B DEB 3.6 19:57:05 29° E 19:57:30 30° ENE 20:00:26 10° N
Cosmos-2242 2.9 19:53:22 10° S 19:57:40 66° E 20:02:02 10° NNE
SeaSat 1 3.4 19:53:49 10° NE 19:57:51 25° ESE 20:01:52 10° SSE
Atlas Centaur 2 4.2 19:52:04 10° W 19:59:34 35° SSW 20:06:06 12° SE
FREGAT/IRIS 3.8 19:59:56 10° S 20:02:55 46° W 20:05:55 10° NNW
Cosmos 1452 Rocket 3.4 20:02:36 10° NNW 20:07:54 87° ENE 20:13:08 10° SSE
CZ-2D R/B 3.7 20:09:16 36° ESE 20:10:01 40° ENE 20:13:40 10° N
ATLAS CENTAUR R/B 4.0 20:07:41 10° WNW 20:10:29 18° WSW 20:13:08 10° SSW
SL-16 R/B 3.7 20:06:45 10° SW 20:12:00 38° WNW 20:17:17 10° N
Cosmos 1842 Rocket 3.8 20:09:06 10° SSE 20:13:11 44° E 20:17:19 10° NNE
Elektron 1 4.1 20:12:01 10° SSW 20:14:29 45° SSE 20:14:29 45° SSE
Cosmos 1544 3.0 20:12:00 10° S 20:15:44 84° E 20:19:29 10° N
Cosmos 1500 Rocket 3.9 20:11:38 10° N 20:15:50 42° E 20:16:34 38° ESE
Cosmos 1408 Rocket 4.1 20:11:35 10° NNW 20:15:51 57° W 20:20:04 10° S
SL-8 R/B 3.6 20:13:13 10° SW 20:17:58 75° SE 20:20:05 33° ENE
Cosmos 1953 3.2 20:18:14 10° SSW 20:22:07 51° W 20:26:01 10° N
H-2A R/B 2.7 20:25:26 58° ESE 20:25:52 63° ENE 20:29:43 10° N
Cosmos 1805 4.4 20:22:44 10° SSW 20:26:30 45° W 20:30:18 10° N
Gbstr 26 Del rocket 3.4 20:23:55 10° SSW 20:28:09 48° SE 20:28:31 47° ESE
Cosmos 1420 Rocket 3.9 20:24:38 10° NNW 20:29:57 76° ENE 20:32:19 34° SSE
Resurs 1-3 4.2 20:27:14 10° S 20:31:32 57° W 20:35:53 10° NNW
Abrixas 3.3 20:29:34 10° WSW 20:31:53 48° W 20:31:53 48° W
Resurs 01 Rocket 2.8 20:28:23 10° S 20:32:37 43° W 20:36:52 10° NNW
Cosmos 1346 3.8 20:30:56 10° NNW 20:33:27 50° WNW 20:33:27 50° WNW
FENGYUN 3A 3.6 20:29:17 14° SSE 20:33:53 89° WSW 20:39:18 10° NNW
ATLAS CENTAUR R/B 4.5 20:29:12 10° WSW 20:34:45 56° NNW 20:52:36 10° NE
ASTEX 1 3.3 20:33:35 10° N 20:38:31 85° W 20:43:24 10° S
Cosmos 1743 Rocket 4.0 20:39:57 10° NNW 20:44:20 61° W 20:46:46 25° SSW
Cosmos 1269 Rocket 4.4 20:40:29 10° SSW 20:45:42 62° WNW 20:50:57 10° NNE
Cosmos 1048 Rocket 4.2 20:42:06 10° SSW 20:47:24 71° WNW 20:52:40 10° NNE
Cosmos 1470 3.0 20:49:05 66° WNW 20:49:05 66° WNW 20:52:53 10° N
CENTAUR R/B 2.3 20:46:05 10° SSW 20:52:02 77° ESE 20:58:44 10° NE
Envisat 4.2 20:56:32 29° NNE 20:56:32 29° NNE 20:59:24 10° N
Cosmos 1943 3.0 20:49:20 10° SSW 20:54:57 80° ESE 21:00:35 10° NNE
Cosmos 2369 Rocket 2.2 20:50:42 10° NNW 20:56:06 60° NE 20:56:06 60° NE
Cosmos 1943 Rocket 3.6 20:54:58 10° N 20:58:11 25° NNE 20:58:11 25° NNE
GP-B 3.7 20:57:42 10° N 21:01:03 50° N 21:01:03 50° N
BREEZE-M DEB (TANK) 3.8 20:57:31 10° WNW 21:07:12 45° N 21:07:42 44° NNE
ISS -0.4 21:05:22 10° WSW 21:06:00 15° WSW 21:06:00 15° WSW
Cosmos 1674 4.4 21:08:29 10° NNW 21:11:36 33° WNW 21:11:36 33° WNW
Cosmos 1655 Rocket 4.0 21:06:00 10° N 21:11:27 62° NE 21:11:27 62° NE
Cosmos 1092 Rocket 4.5 21:07:32 10° NNW 21:13:36 57° W 21:17:09 25° SSW
ALOS 4.4 21:21:06 14° SW 21:24:02 24° W 21:27:48 10° NW
Cosmos 2026 Rocket 4.0 21:21:56 10° N 21:27:33 74° NW 21:27:33 74° NW
ERS-1 Rocket 4.3 21:35:09 35° NNW 21:35:09 35° NNW 21:38:02 10° NNW
SeaSat 1 3.6 21:30:51 10° N 21:35:27 40° WNW 21:40:01 10° SW
